TimeCDT,TemperatureF,Dew PointF,Humidity,Sea Level PressureIn,VisibilityMPH,Wind Direction,Wind SpeedMPH,Gust SpeedMPH,PrecipitationIn,Events,Conditions,WindDirDegrees,DateUTC
12:10 AM,41.0,33.8,76,30.05,10.0,NNE,10.4,-,N/A,,Clear,20,2013-10-28 05:10:00
12:30 AM,39.2,33.8,81,30.06,10.0,NNE,11.5,-,N/A,,Clear,20,2013-10-28 05:30:00
12:50 AM,39.2,33.8,81,30.07,10.0,NNE,11.5,-,N/A,,Clear,20,2013-10-28 05:50:00
1:10 AM,39.2,32.0,75,30.08,10.0,NNE,11.5,-,N/A,,Clear,20,2013-10-28 06:10:00
1:30 AM,39.2,33.8,81,30.09,10.0,NNE,10.4,-,N/A,,Clear,20,2013-10-28 06:30:00
1:50 AM,39.2,33.8,81,30.09,10.0,NNE,13.8,18.4,N/A,,Clear,30,2013-10-28 06:50:00
2:10 AM,39.2,32.0,75,30.11,10.0,NNE,11.5,17.3,N/A,,Clear,30,2013-10-28 07:10:00
2:30 AM,39.2,32.0,75,30.12,10.0,NNE,13.8,20.7,N/A,,Clear,30,2013-10-28 07:30:00
2:50 AM,37.4,32.0,81,30.13,10.0,NNE,11.5,18.4,N/A,,Clear,30,2013-10-28 07:50:00
3:10 AM,37.4,32.0,81,30.14,10.0,NNE,11.5,18.4,N/A,,Clear,30,2013-10-28 08:10:00
3:30 AM,37.4,32.0,81,30.15,10.0,NNE,11.5,18.4,N/A,,Clear,30,2013-10-28 08:30:00
3:50 AM,37.4,32.0,81,30.15,10.0,NE,12.7,19.6,N/A,,Clear,40,2013-10-28 08:50:00
4:10 AM,37.4,32.0,81,30.16,10.0,NE,13.8,-,N/A,,Clear,40,2013-10-28 09:10:00
4:29 AM,35.6,30.2,81,30.17,10.0,NE,12.7,17.3,N/A,,Clear,40,2013-10-28 09:29:00
4:50 AM,35.6,30.2,81,30.18,10.0,NE,11.5,-,N/A,,Clear,40,2013-10-28 09:50:00
5:10 AM,35.6,30.2,81,30.19,10.0,NE,11.5,-,N/A,,Clear,40,2013-10-28 10:10:00
5:29 AM,35.6,30.2,81,30.21,10.0,NE,11.5,-,N/A,,Clear,40,2013-10-28 10:29:00
5:50 AM,35.6,30.2,81,30.22,10.0,NE,10.4,-,N/A,,Clear,40,2013-10-28 10:50:00
6:10 AM,33.8,30.2,87,30.23,10.0,NE,9.2,-,N/A,,Clear,40,2013-10-28 11:10:00
6:29 AM,33.8,30.2,87,30.23,10.0,NE,10.4,-,N/A,,Clear,40,2013-10-28 11:29:00
6:50 AM,33.8,30.2,87,30.25,10.0,NE,9.2,-,N/A,,Clear,40,2013-10-28 11:50:00
7:10 AM,33.8,30.2,87,30.26,10.0,NE,10.4,-,N/A,,Clear,40,2013-10-28 12:10:00
7:29 AM,33.8,30.2,87,30.27,10.0,NNE,9.2,-,N/A,,Clear,30,2013-10-28 12:29:00
7:50 AM,33.8,30.2,87,30.28,10.0,NNE,10.4,-,N/A,,Clear,30,2013-10-28 12:50:00
8:10 AM,33.8,30.2,87,30.29,10.0,NE,10.4,17.3,N/A,,Clear,40,2013-10-28 13:10:00
8:29 AM,33.8,30.2,87,30.30,10.0,NE,11.5,17.3,N/A,,Clear,40,2013-10-28 13:29:00
8:50 AM,35.6,30.2,81,30.31,10.0,NE,11.5,-,N/A,,Mostly Cloudy,50,2013-10-28 13:50:00
9:10 AM,35.6,30.2,81,30.32,10.0,NE,12.7,20.7,N/A,,Overcast,40,2013-10-28 14:10:00
9:29 AM,35.6,30.2,81,30.33,10.0,NE,12.7,-,N/A,,Overcast,50,2013-10-28 14:29:00
9:50 AM,37.4,30.2,75,30.33,10.0,ENE,15.0,18.4,N/A,,Overcast,60,2013-10-28 14:50:00
10:10 AM,37.4,30.2,75,30.33,10.0,ENE,16.1,-,N/A,,Overcast,60,2013-10-28 15:10:00
10:29 AM,37.4,30.2,75,30.34,10.0,East,15.0,19.6,N/A,,Overcast,80,2013-10-28 15:29:00
10:50 AM,39.2,30.2,70,30.34,10.0,ENE,16.1,19.6,N/A,,Overcast,70,2013-10-28 15:50:00
11:10 AM,39.2,28.4,65,30.34,10.0,ENE,18.4,21.9,N/A,,Overcast,70,2013-10-28 16:10:00
11:29 AM,39.2,28.4,65,30.34,10.0,ENE,18.4,23.0,N/A,,Mostly Cloudy,70,2013-10-28 16:29:00
11:50 AM,42.8,28.4,57,30.34,10.0,NE,17.3,20.7,N/A,,Scattered Clouds,50,2013-10-28 16:50:00
12:09 PM,42.8,28.4,57,30.35,10.0,ENE,16.1,19.6,N/A,,Clear,60,2013-10-28 17:09:00
12:30 PM,42.8,28.4,57,30.35,10.0,ENE,12.7,25.3,N/A,,Clear,60,2013-10-28 17:30:00
12:50 PM,42.8,28.4,57,30.34,10.0,East,12.7,20.7,N/A,,Clear,80,2013-10-28 17:50:00
1:10 PM,44.6,28.4,53,30.34,10.0,ENE,13.8,17.3,N/A,,Clear,70,2013-10-28 18:10:00
1:30 PM,44.6,28.4,53,30.33,10.0,NE,13.8,19.6,N/A,,Clear,50,2013-10-28 18:30:00
1:50 PM,44.6,28.4,53,30.32,10.0,NE,13.8,-,N/A,,Clear,50,2013-10-28 18:50:00
2:10 PM,44.6,28.4,53,30.32,10.0,NE,11.5,18.4,N/A,,Clear,50,2013-10-28 19:10:00
2:30 PM,44.6,28.4,53,30.31,10.0,NE,13.8,-,N/A,,Clear,50,2013-10-28 19:30:00
2:50 PM,44.6,28.4,53,30.32,10.0,NNE,12.7,17.3,N/A,,Clear,30,2013-10-28 19:50:00
3:10 PM,44.6,28.4,53,30.33,10.0,ENE,12.7,-,N/A,,Clear,60,2013-10-28 20:10:00
3:29 PM,42.8,28.4,57,30.33,10.0,ENE,10.4,16.1,N/A,,Clear,60,2013-10-28 20:29:00
3:50 PM,44.6,28.4,53,30.32,10.0,East,9.2,-,N/A,,Scattered Clouds,80,2013-10-28 20:50:00
4:10 PM,44.6,28.4,53,30.32,10.0,ENE,11.5,-,N/A,,Scattered Clouds,70,2013-10-28 21:10:00
4:29 PM,44.6,28.4,53,30.32,10.0,ENE,15.0,-,N/A,,Scattered Clouds,60,2013-10-28 21:29:00
4:50 PM,42.8,28.4,57,30.32,10.0,ENE,13.8,-,N/A,,Scattered Clouds,60,2013-10-28 21:50:00
5:10 PM,42.8,28.4,57,30.33,10.0,ENE,11.5,16.1,N/A,,Mostly Cloudy,70,2013-10-28 22:10:00
5:29 PM,42.8,28.4,57,30.33,10.0,ENE,11.5,16.1,N/A,,Mostly Cloudy,70,2013-10-28 22:29:00
5:50 PM,41.0,28.4,61,30.33,10.0,East,10.4,-,N/A,,Scattered Clouds,80,2013-10-28 22:50:00
6:10 PM,39.2,28.4,65,30.33,10.0,East,5.8,-,N/A,,Clear,80,2013-10-28 23:10:00
6:30 PM,39.2,28.4,65,30.33,10.0,East,5.8,-,N/A,,Clear,80,2013-10-28 23:30:00
6:50 PM,37.4,28.4,70,30.34,10.0,East,5.8,-,N/A,,Clear,80,2013-10-28 23:50:00
7:00 PM,37.4,28.4,70,30.34,10.0,ENE,6.9,-,N/A,,Clear,70,2013-10-29 00:00:00
7:25 PM,35.6,28.4,75,30.34,10.0,ENE,6.9,-,N/A,,Clear,60,2013-10-29 00:25:00
7:41 PM,35.6,28.4,75,30.34,10.0,ENE,6.9,-,N/A,,Clear,60,2013-10-29 00:41:00
8:01 PM,35.6,28.4,75,30.34,10.0,ENE,6.9,-,N/A,,Clear,60,2013-10-29 01:01:00
8:21 PM,35.6,28.4,75,30.35,10.0,ENE,6.9,-,N/A,,Clear,60,2013-10-29 01:21:00
8:41 PM,35.6,28.4,75,30.35,10.0,ENE,6.9,-,N/A,,Mostly Cloudy,60,2013-10-29 01:41:00
9:07 PM,37.4,30.2,75,30.35,10.0,ENE,6.9,-,N/A,,Overcast,70,2013-10-29 02:07:00
9:22 PM,37.4,30.2,75,30.34,10.0,ENE,6.9,-,N/A,,Overcast,70,2013-10-29 02:22:00
9:34 PM,37.4,30.2,75,30.34,10.0,NE,6.9,-,N/A,,Overcast,50,2013-10-29 02:34:00
9:50 PM,37.4,30.2,75,30.33,10.0,ENE,6.9,-,N/A,,Overcast,60,2013-10-29 02:50:00
10:10 PM,37.4,30.2,75,30.34,10.0,NE,6.9,-,N/A,,Overcast,50,2013-10-29 03:10:00
10:30 PM,37.4,30.2,75,30.34,10.0,ENE,3.5,-,N/A,,Overcast,70,2013-10-29 03:30:00
10:50 PM,37.4,30.2,75,30.34,10.0,ENE,3.5,-,N/A,,Scattered Clouds,60,2013-10-29 03:50:00
11:10 PM,37.4,30.2,75,30.34,10.0,Calm,Calm,-,N/A,,Scattered Clouds,0,2013-10-29 04:10:00
11:30 PM,37.4,30.2,75,30.34,10.0,ENE,3.5,-,N/A,,Clear,70,2013-10-29 04:30:00
11:50 PM,39.2,28.4,65,30.33,10.0,East,6.9,-,N/A,,Clear,90,2013-10-29 04:50:00